Terminal Aerodrome Forecast
Issued by NWS Sterling, VA

Home | Current Version | Previous Version | Text Only | Print | Product List | Glossary On
Versions: 1 2 3 4 5 6 7 8 9 10 11 12 13 14 15 16 17 18 19 20 21 22
000
FTUS41 KLWX 311453 AAA
TAFBWI
TAF AMD
KBWI 311453Z 3115/0118 26006KT P6SM VCSH SCT050 BKN100
     FM312000 24006KT P6SM BKN100
     FM010100 21004KT P6SM SCT120
     FM011500 02004KT P6SM FEW250=

USA.gov is the U.S. government's official web portal to all federal, state and local government web resources and services.